| time (UTC) | temp F | wind direction | speed knots | gust knots | rain 1hr in | rain 24hr in | rain mn in | humidity % | barometer mb |
| 20260904020505 | 79 | 263 | 0.0 | 0.0 | 0.00 | 0.00 | 0.00 | 30 | 1019.9 |
| 20260904020028 | 80 | 263 | 0.0 | 0.0 | 0.00 | 0.00 | 0.00 | 29 | 1019.9 |
| 20260904015536 | 80 | 263 | 0.0 | 0.0 | 0.00 | 0.00 | 0.00 | 29 | 1019.9 |
| 20260904015044 | 80 | 263 | 0.0 | 0.0 | 0.00 | 0.00 | 0.00 | 29 | 1020.0 |
| 20260904014556 | 81 | 263 | 0.0 | 0.0 | 0.00 | 0.00 | 0.00 | 29 | 1019.9 |
| 20260904014100 | 81 | 263 | 0.0 | 0.9 | 0.00 | 0.00 | 0.00 | 28 | 1020.0 |
| 20260904013502 | 82 | 263 | 0.0 | 1.7 | 0.00 | 0.00 | 0.00 | 28 | 1019.9 |
| 20260904013112 | 82 | 263 | 0.0 | 1.7 | 0.00 | 0.00 | 0.00 | 28 | 1019.9 |
| 20260904012502 | 82 | 263 | 0.9 | 3.5 | 0.00 | 0.00 | 0.00 | 27 | 1020.0 |
| 20260904012058 | 82 | 259 | 1.7 | 3.5 | 0.00 | 0.00 | 0.00 | 28 | 1020.0 |
| 20260904011553 | 82 | 251 | 0.9 | 3.5 | 0.00 | 0.00 | 0.00 | 27 | 1020.0 |
| 20260904011056 | 83 | 231 | 0.9 | 4.3 | 0.00 | 0.00 | 0.00 | 27 | 1020.0 |
| 20260904010604 | 83 | 277 | 1.7 | 6.1 | 0.00 | 0.00 | 0.00 | 27 | 1020.0 |
| 20260904010010 | 83 | 236 | 2.6 | 6.1 | 0.00 | 0.00 | 0.00 | 27 | 1020.0 |
| 20260904005603 | 84 | 209 | 0.9 | 5.2 | 0.00 | 0.00 | 0.00 | 26 | 1020.0 |
| 20260904005004 | 84 | 232 | 1.7 | 7.8 | 0.00 | 0.00 | 0.00 | 25 | 1020.0 |
| 20260904004602 | 85 | 276 | 3.5 | 7.8 | 0.00 | 0.00 | 0.00 | 25 | 1020.0 |
| 20260904004006 | 85 | 270 | 0.9 | 7.0 | 0.00 | 0.00 | 0.00 | 25 | 1020.1 |
| 20260904003601 | 85 | 267 | 3.5 | 11.3 | 0.00 | 0.00 | 0.00 | 25 | 1020.0 |
| 20260904003053 | 85 | 205 | 1.7 | 11.3 | 0.00 | 0.00 | 0.00 | 24 | 1020.1 |
| 20260904002604 | 86 | 294 | 1.7 | 5.2 | 0.00 | 0.00 | 0.00 | 25 | 1020.0 |
| 20260904002055 | 86 | 312 | 1.7 | 7.0 | 0.00 | 0.00 | 0.00 | 25 | 1020.0 |
| 20260904001543 | 86 | 329 | 3.5 | 7.0 | 0.00 | 0.00 | 0.00 | 26 | 1020.1 |
| 20260904001052 | 87 | 190 | 0.9 | 6.1 | 0.00 | 0.00 | 0.00 | 25 | 1020.1 |
| 20260904000559 | 87 | 194 | 0.9 | 7.0 | 0.00 | 0.00 | 0.00 | 25 | 1020.2 |
| 20260904000002 | 87 | 196 | 1.7 | 6.1 | 0.00 | 0.00 | 0.00 | 25 | 1020.1 |
| 20260903235557 | 87 | 168 | 1.7 | 4.3 | 0.00 | 0.00 | 0.00 | 25 | 1020.2 |
| 20260903235104 | 87 | 155 | 1.7 | 7.0 | 0.00 | 0.00 | 0.00 | 25 | 1020.1 |
| 20260903234558 | 87 | 220 | 2.6 | 5.2 | 0.00 | 0.00 | 0.00 | 25 | 1020.3 |
| 20260903234001 | 87 | 213 | 0.9 | 7.8 | 0.00 | 0.00 | 0.00 | 25 | 1020.2 |
| 20260903233557 | 87 | 134 | 3.5 | 7.8 | 0.00 | 0.00 | 0.00 | 25 | 1020.3 |
| 20260903233052 | 87 | 155 | 3.5 | 8.7 | 0.00 | 0.00 | 0.00 | 25 | 1020.3 |
| 20260903232559 | 87 | 169 | 5.2 | 8.7 | 0.00 | 0.00 | 0.00 | 25 | 1020.3 |
| 20260903232052 | 87 | 185 | 3.5 | 7.8 | 0.00 | 0.00 | 0.00 | 25 | 1020.4 |
| 20260903231543 | 87 | 178 | 3.5 | 8.7 | 0.00 | 0.00 | 0.00 | 25 | 1020.4 |
| 20260903231050 | 87 | 171 | 3.5 | 8.7 | 0.00 | 0.00 | 0.00 | 26 | 1020.4 |
| 20260903230542 | 87 | 304 | 1.7 | 6.1 | 0.00 | 0.00 | 0.00 | 25 | 1020.5 |
| 20260903230049 | 87 | 203 | 3.5 | 6.1 | 0.00 | 0.00 | 0.00 | 25 | 1020.5 |
| 20260903225557 | 88 | 186 | 1.7 | 4.3 | 0.00 | 0.00 | 0.00 | 25 | 1020.5 |
| 20260903225106 | 88 | 244 | 0.9 | 7.0 | 0.00 | 0.00 | 0.00 | 25 | 1020.5 |
| 20260903224555 | 88 | 220 | 0.9 | 6.1 | 0.00 | 0.00 | 0.00 | 25 | 1020.6 |
| 20260903224105 | 88 | 263 | 0.9 | 4.3 | 0.00 | 0.00 | 0.00 | 25 | 1020.6 |
| 20260903223559 | 88 | 132 | 0.9 | 7.8 | 0.00 | 0.00 | 0.00 | 25 | 1020.7 |
| 20260903223111 | 88 | 197 | 4.3 | 7.8 | 0.00 | 0.00 | 0.00 | 25 | 1020.8 |
| 20260903222557 | 88 | 259 | 1.7 | 5.2 | 0.00 | 0.00 | 0.00 | 26 | 1020.7 |
| 20260903222048 | 88 | 257 | 0.9 | 7.0 | 0.00 | 0.00 | 0.00 | 26 | 1020.8 |
| 20260903221556 | 88 | 145 | 2.6 | 9.6 | 0.00 | 0.00 | 0.00 | 26 | 1020.9 |
| 20260903221102 | 88 | 235 | 5.2 | 9.6 | 0.00 | 0.00 | 0.00 | 26 | 1021.0 |
| 20260903220505 | 87 | 255 | 3.5 | 7.0 | 0.00 | 0.00 | 0.00 | 26 | 1021.0 |
| 20260903220107 | 87 | 203 | 4.3 | 7.0 | 0.00 | 0.00 | 0.00 | 26 | 1020.9 |
| 20260903215549 | 87 | 15 | 0.9 | 5.2 | 0.00 | 0.00 | 0.00 | 26 | 1021.1 |
| 20260903215056 | 86 | 176 | 1.7 | 5.2 | 0.00 | 0.00 | 0.00 | 27 | 1021.2 |
| 20260903214604 | 86 | 340 | 0.9 | 3.5 | 0.00 | 0.00 | 0.00 | 27 | 1021.2 |
| 20260903214007 | 85 | 329 | 1.7 | 5.2 | 0.00 | 0.00 | 0.00 | 28 | 1021.3 |
| 20260903213605 | 85 | 292 | 2.6 | 10.4 | 0.00 | 0.00 | 0.00 | 27 | 1021.3 |
| 20260903213013 | 85 | 329 | 6.1 | 10.4 | 0.00 | 0.00 | 0.00 | 27 | 1021.2 |
| 20260903212605 | 86 | 294 | 2.6 | 7.8 | 0.00 | 0.00 | 0.00 | 27 | 1021.3 |
| 20260903212006 | 86 | 271 | 4.3 | 7.8 | 0.00 | 0.00 | 0.00 | 26 | 1021.4 |
| 20260903211515 | 87 | 217 | 0.9 | 7.0 | 0.00 | 0.00 | 0.00 | 27 | 1021.5 |
| 20260903211022 | 87 | 229 | 3.5 | 8.7 | 0.00 | 0.00 | 0.00 | 27 | 1021.5 |
| 20260903210531 | 87 | 215 | 1.7 | 8.7 | 0.00 | 0.00 | 0.00 | 27 | 1021.6 |
| 20260903210048 | 86 | 201 | 0.9 | 8.7 | 0.00 | 0.00 | 0.00 | 28 | 1021.6 |
| 20260903205546 | 85 | 215 | 5.2 | 8.7 | 0.00 | 0.00 | 0.00 | 29 | 1021.8 |
| 20260903205037 | 84 | 96 | 1.7 | 7.8 | 0.00 | 0.00 | 0.00 | 29 | 1021.8 |
| 20260903204546 | 85 | 96 | 3.5 | 7.8 | 0.00 | 0.00 | 0.00 | 28 | 1021.8 |
| 20260903204055 | 85 | 169 | 4.3 | 7.8 | 0.00 | 0.00 | 0.00 | 28 | 1021.9 |
| 20260903203603 | 85 | 188 | 1.7 | 7.8 | 0.00 | 0.00 | 0.00 | 28 | 1021.9 |
| 20260903203052 | 85 | 275 | 2.6 | 7.8 | 0.00 | 0.00 | 0.00 | 28 | 1022.0 |
| 20260903202600 | 86 | 193 | 1.7 | 8.7 | 0.00 | 0.00 | 0.00 | 27 | 1022.0 |
| 20260903202053 | 87 | 193 | 3.5 | 8.7 | 0.00 | 0.00 | 0.00 | 27 | 1021.9 |
| 20260903201601 | 86 | 226 | 4.3 | 13.0 | 0.00 | 0.00 | 0.00 | 27 | 1022.0 |
| 20260903201053 | 85 | 180 | 5.2 | 9.6 | 0.00 | 0.00 | 0.00 | 29 | 1022.0 |
| 20260903200543 | 83 | 234 | 2.6 | 11.3 | 0.00 | 0.00 | 0.00 | 30 | 1022.1 |
| 20260903200058 | 82 | 252 | 7.8 | 11.3 | 0.00 | 0.00 | 0.00 | 30 | 1022.0 |
| 20260903195546 | 82 | 265 | 6.1 | 8.7 | 0.00 | 0.00 | 0.00 | 30 | 1022.1 |
| 20260903195052 | 82 | 251 | 0.0 | 7.8 | 0.00 | 0.00 | 0.00 | 31 | 1022.2 |
| 20260903194600 | 82 | 238 | 5.2 | 9.6 | 0.00 | 0.00 | 0.00 | 31 | 1022.3 |
| 20260903194002 | 83 | 340 | 5.2 | 10.4 | 0.00 | 0.00 | 0.00 | 29 | 1022.4 |
| 20260903193600 | 83 | 292 | 2.6 | 8.7 | 0.00 | 0.00 | 0.00 | 29 | 1022.5 |
| 20260903193004 | 83 | 271 | 4.3 | 11.3 | 0.00 | 0.00 | 0.00 | 30 | 1022.6 |
| 20260903192602 | 83 | 9 | 5.2 | 11.3 | 0.00 | 0.00 | 0.00 | 29 | 1022.6 |
| 20260903192052 | 84 | 331 | 1.7 | 7.0 | 0.00 | 0.00 | 0.00 | 30 | 1022.8 |
| 20260903191559 | 83 | 133 | 3.5 | 8.7 | 0.00 | 0.00 | 0.00 | 30 | 1022.9 |
| 20260903191053 | 82 | 294 | 4.3 | 11.3 | 0.00 | 0.00 | 0.00 | 30 | 1022.9 |
| 20260903190544 | 83 | 271 | 4.3 | 11.3 | 0.00 | 0.00 | 0.00 | 30 | 1022.9 |
| 20260903190054 | 83 | 247 | 2.6 | 7.8 | 0.00 | 0.00 | 0.00 | 30 | 1023.0 |
| 20260903185559 | 82 | 238 | 2.6 | 8.7 | 0.00 | 0.00 | 0.00 | 31 | 1023.0 |
| 20260903185002 | 82 | 268 | 2.6 | 6.1 | 0.00 | 0.00 | 0.00 | 31 | 1023.1 |
| 20260903184556 | 81 | 221 | 2.6 | 7.8 | 0.00 | 0.00 | 0.00 | 31 | 1023.2 |
| 20260903184104 | 81 | 313 | 2.6 | 8.7 | 0.00 | 0.00 | 0.00 | 31 | 1023.3 |
| 20260903183556 | 81 | 262 | 3.5 | 8.7 | 0.00 | 0.00 | 0.00 | 32 | 1023.3 |
| 20260903183105 | 81 | 334 | 4.3 | 8.7 | 0.00 | 0.00 | 0.00 | 31 | 1023.4 |
| 20260903182558 | 81 | 171 | 1.7 | 4.3 | 0.00 | 0.00 | 0.00 | 31 | 1023.5 |
| 20260903182049 | 80 | 19 | 0.0 | 7.8 | 0.00 | 0.00 | 0.00 | 33 | 1023.5 |
| 20260903181556 | 79 | 223 | 2.6 | 8.7 | 0.00 | 0.00 | 0.00 | 32 | 1023.6 |
| 20260903181104 | 80 | 268 | 4.3 | 8.7 | 0.00 | 0.00 | 0.00 | 33 | 1023.6 |
| 20260903180506 | 79 | 341 | 0.9 | 7.8 | 0.00 | 0.00 | 0.00 | 34 | 1023.7 |
| 20260903180053 | 79 | 5 | 1.7 | 9.6 | 0.00 | 0.00 | 0.00 | 34 | 1023.8 |
| 20260903175602 | 78 | 266 | 5.2 | 10.4 | 0.00 | 0.00 | 0.00 | 34 | 1023.8 |
| 20260903175003 | 78 | 306 | 6.1 | 10.4 | 0.00 | 0.00 | 0.00 | 34 | 1023.8 |
| 20260903174558 | 78 | 267 | 4.3 | 7.8 | 0.00 | 0.00 | 0.00 | 34 | 1023.8 |
| 20260903174003 | 77 | 289 | 0.9 | 10.4 | 0.00 | 0.00 | 0.00 | 36 | 1024.0 |
| 20260903173559 | 77 | 294 | 6.1 | 9.6 | 0.00 | 0.00 | 0.00 | 35 | 1023.9 |
| 20260903173007 | 78 | 297 | 4.3 | 8.7 | 0.00 | 0.00 | 0.00 | 35 | 1023.9 |
| 20260903172601 | 78 | 282 | 3.5 | 7.8 | 0.00 | 0.00 | 0.00 | 34 | 1023.9 |
| 20260903172055 | 79 | 249 | 1.7 | 7.8 | 0.00 | 0.00 | 0.00 | 33 | 1023.9 |
| 20260903171603 | 79 | 304 | 3.5 | 7.0 | 0.00 | 0.00 | 0.00 | 33 | 1024.0 |
| 20260903171108 | 79 | 204 | 1.7 | 7.0 | 0.00 | 0.00 | 0.00 | 35 | 1023.9 |
| 20260903170508 | 80 | 264 | 2.6 | 5.2 | 0.00 | 0.00 | 0.00 | 35 | 1023.9 |
| 20260903170108 | 79 | 215 | 2.6 | 5.2 | 0.00 | 0.00 | 0.00 | 37 | 1023.9 |
| 20260903165507 | 79 | 118 | 0.9 | 3.5 | 0.00 | 0.00 | 0.00 | 38 | 1023.9 |
| 20260903165105 | 78 | 175 | 0.0 | 3.5 | 0.00 | 0.00 | 0.00 | 38 | 1024.0 |
| 20260903164508 | 78 | 50 | 0.9 | 2.6 | 0.00 | 0.00 | 0.00 | 39 | 1023.9 |
| 20260903164105 | 77 | 84 | 0.0 | 3.5 | 0.00 | 0.00 | 0.00 | 39 | 1023.9 |
| 20260903163555 | 77 | 169 | 0.9 | 3.5 | 0.00 | 0.00 | 0.00 | 40 | 1024.0 |
| 20260903163102 | 76 | 155 | 0.9 | 2.6 | 0.00 | 0.00 | 0.00 | 41 | 1023.9 |
| 20260903162504 | 76 | 66 | 0.9 | 4.3 | 0.00 | 0.00 | 0.00 | 42 | 1023.9 |
| 20260903162013 | 75 | 135 | 0.9 | 3.5 | 0.00 | 0.00 | 0.00 | 42 | 1023.9 |
| 20260903161522 | 75 | 163 | 1.7 | 3.5 | 0.00 | 0.00 | 0.00 | 43 | 1023.9 |
| 20260903161027 | 74 | 207 | 1.7 | 3.5 | 0.00 | 0.00 | 0.00 | 44 | 1023.8 |
| 20260903160535 | 74 | 119 | 1.7 | 6.1 | 0.00 | 0.00 | 0.00 | 45 | 1023.9 |
| 20260903160043 | 73 | 144 | 1.7 | 6.1 | 0.00 | 0.00 | 0.00 | 45 | 1023.9 |
| 20260903155548 | 73 | 113 | 1.7 | 7.0 | 0.00 | 0.00 | 0.00 | 46 | 1023.9 |
| 20260903155056 | 72 | 150 | 2.6 | 7.0 | 0.00 | 0.00 | 0.00 | 47 | 1024.0 |
| 20260903154604 | 72 | 115 | 2.6 | 7.0 | 0.00 | 0.00 | 0.00 | 47 | 1023.9 |
| 20260903154006 | 71 | 142 | 4.3 | 7.0 | 0.00 | 0.00 | 0.00 | 48 | 1024.0 |
| 20260903153517 | 71 | 90 | 3.5 | 7.0 | 0.00 | 0.00 | 0.00 | 48 | 1024.0 |
| 20260903153019 | 70 | 110 | 4.3 | 7.0 | 0.00 | 0.00 | 0.00 | 49 | 1024.0 |
| 20260903152527 | 70 | 116 | 2.6 | 7.0 | 0.00 | 0.00 | 0.00 | 49 | 1024.0 |
| 20260903152035 | 70 | 135 | 3.5 | 7.0 | 0.00 | 0.00 | 0.00 | 50 | 1024.0 |
| 20260903151543 | 69 | 147 | 2.6 | 7.0 | 0.00 | 0.00 | 0.00 | 51 | 1023.9 |
| 20260903151051 | 69 | 107 | 4.3 | 7.0 | 0.00 | 0.00 | 0.00 | 51 | 1024.0 |
| 20260903150542 | 68 | 121 | 4.3 | 7.0 | 0.00 | 0.00 | 0.00 | 52 | 1024.0 |
| 20260903150059 | 68 | 117 | 4.3 | 7.8 | 0.00 | 0.00 | 0.00 | 52 | 1024.0 |
| 20260903145557 | 67 | 126 | 4.3 | 7.8 | 0.00 | 0.00 | 0.00 | 51 | 1023.9 |
| 20260903145002 | 67 | 119 | 3.5 | 6.1 | 0.00 | 0.00 | 0.00 | 54 | 1023.9 |
| 20260903144556 | 67 | 105 | 2.6 | 6.1 | 0.00 | 0.00 | 0.00 | 54 | 1024.0 |
| 20260903144104 | 66 | 88 | 2.6 | 7.0 | 0.00 | 0.00 | 0.00 | 54 | 1024.0 |
| 20260903143556 | 66 | 86 | 2.6 | 7.0 | 0.00 | 0.00 | 0.00 | 54 | 1024.0 |
| 20260903143110 | 65 | 110 | 3.5 | 7.0 | 0.00 | 0.00 | 0.00 | 54 | 1023.9 |
| 20260903142557 | 65 | 86 | 3.5 | 7.0 | 0.00 | 0.00 | 0.00 | 55 | 1023.9 |
| 20260903142049 | 65 | 103 | 2.6 | 7.0 | 0.00 | 0.00 | 0.00 | 56 | 1023.8 |
| 20260903141555 | 64 | 124 | 4.3 | 7.0 | 0.00 | 0.00 | 0.00 | 55 | 1023.8 |
| 20260903141103 | 64 | 135 | 4.3 | 7.0 | 0.00 | 0.00 | 0.00 | 56 | 1023.7 |
| 20260903140507 | 64 | 121 | 3.5 | 7.0 | 0.00 | 0.00 | 0.00 | 56 | 1023.7 |
| 20260903140051 | 63 | 111 | 4.3 | 7.0 | 0.00 | 0.00 | 0.00 | 57 | 1023.7 |
| 20260903135601 | 63 | 121 | 3.5 | 7.0 | 0.00 | 0.00 | 0.00 | 58 | 1023.7 |
| 20260903135053 | 62 | 107 | 4.3 | 7.0 | 0.00 | 0.00 | 0.00 | 59 | 1023.7 |
| 20260903134611 | 62 | 119 | 3.5 | 7.0 | 0.00 | 0.00 | 0.00 | 60 | 1023.7 |
| 20260903134005 | 61 | 105 | 4.3 | 6.1 | 0.00 | 0.00 | 0.00 | 61 | 1023.6 |
| 20260903133600 | 61 | 128 | 3.5 | 6.1 | 0.00 | 0.00 | 0.00 | 61 | 1023.6 |
| 20260903133002 | 60 | 111 | 2.6 | 5.2 | 0.00 | 0.00 | 0.00 | 62 | 1023.6 |
| 20260903132558 | 60 | 122 | 2.6 | 5.2 | 0.00 | 0.00 | 0.00 | 63 | 1023.6 |
| 20260903132048 | 59 | 107 | 3.5 | 5.2 | 0.00 | 0.00 | 0.00 | 64 | 1023.6 |
| 20260903131557 | 59 | 123 | 2.6 | 5.2 | 0.00 | 0.00 | 0.00 | 64 | 1023.6 |
| 20260903131105 | 58 | 117 | 2.6 | 4.3 | 0.00 | 0.00 | 0.00 | 65 | 1023.4 |
| 20260903130507 | 58 | 99 | 3.5 | 6.1 | 0.00 | 0.00 | 0.00 | 65 | 1023.4 |
| 20260903125506 | 58 | 99 | 2.6 | 6.1 | 0.00 | 0.00 | 0.00 | 66 | 1023.4 |
| 20260903125013 | 58 | 88 | 2.6 | 7.0 | 0.00 | 0.00 | 0.00 | 66 | 1023.3 |
| 20260903124519 | 58 | 90 | 3.5 | 7.0 | 0.00 | 0.00 | 0.00 | 66 | 1023.2 |
| 20260903124027 | 58 | 67 | 3.5 | 7.0 | 0.00 | 0.00 | 0.00 | 65 | 1023.2 |
| 20260903123536 | 58 | 92 | 3.5 | 7.0 | 0.00 | 0.00 | 0.00 | 65 | 1023.3 |
| 20260903123043 | 58 | 89 | 3.5 | 7.8 | 0.00 | 0.00 | 0.00 | 65 | 1023.3 |
| 20260903122553 | 58 | 87 | 5.2 | 7.8 | 0.00 | 0.00 | 0.00 | 65 | 1023.1 |
| 20260903122059 | 58 | 107 | 3.5 | 6.1 | 0.00 | 0.00 | 0.00 | 65 | 1023.1 |
| 20260903121502 | 58 | 96 | 2.6 | 6.1 | 0.00 | 0.00 | 0.00 | 65 | 1023.1 |
| 20260903121057 | 58 | 96 | 3.5 | 6.1 | 0.00 | 0.00 | 0.00 | 65 | 1023.1 |
| 20260903120607 | 58 | 108 | 3.5 | 5.2 | 0.00 | 0.00 | 0.00 | 65 | 1023.1 |
| 20260903120056 | 58 | 144 | 4.3 | 7.0 | 0.00 | 0.00 | 0.00 | 64 | 1023.0 |
| 20260903115604 | 58 | 114 | 4.3 | 7.0 | 0.00 | 0.00 | 0.00 | 64 | 1023.0 |
| 20260903115056 | 59 | 123 | 4.3 | 6.1 | 0.00 | 0.00 | 0.00 | 64 | 1023.0 |
| 20260903114605 | 59 | 101 | 2.6 | 5.2 | 0.00 | 0.00 | 0.00 | 63 | 1023.0 |
| 20260903114010 | 59 | 80 | 2.6 | 5.2 | 0.00 | 0.00 | 0.00 | 63 | 1022.9 |
| 20260903113606 | 59 | 105 | 3.5 | 7.0 | 0.00 | 0.00 | 0.00 | 63 | 1022.9 |
| 20260903113006 | 59 | 111 | 4.3 | 7.0 | 0.00 | 0.00 | 0.00 | 63 | 1022.8 |
| 20260903112518 | 59 | 138 | 1.7 | 5.2 | 0.00 | 0.00 | 0.00 | 63 | 1022.9 |
| 20260903112022 | 59 | 107 | 1.7 | 5.2 | 0.00 | 0.00 | 0.00 | 62 | 1022.9 |
| 20260903111530 | 60 | 135 | 2.6 | 5.2 | 0.00 | 0.00 | 0.00 | 62 | 1022.9 |
| 20260903111040 | 60 | 117 | 1.7 | 5.2 | 0.00 | 0.00 | 0.00 | 61 | 1022.9 |
| 20260903110547 | 60 | 115 | 1.7 | 5.2 | 0.00 | 0.00 | 0.00 | 61 | 1022.9 |
| 20260903110051 | 60 | 102 | 2.6 | 4.3 | 0.00 | 0.00 | 0.00 | 61 | 1022.9 |
| 20260903105545 | 60 | 78 | 1.7 | 5.2 | 0.00 | 0.00 | 0.00 | 61 | 1022.8 |
| 20260903105049 | 60 | 80 | 2.6 | 5.2 | 0.00 | 0.00 | 0.00 | 61 | 1022.8 |
| 20260903104605 | 60 | 96 | 2.6 | 5.2 | 0.00 | 0.00 | 0.00 | 60 | 1022.8 |
| 20260903104001 | 60 | 99 | 1.7 | 5.2 | 0.00 | 0.00 | 0.00 | 60 | 1022.8 |
| 20260903103556 | 60 | 98 | 3.5 | 5.2 | 0.00 | 0.00 | 0.00 | 60 | 1022.8 |
| 20260903103104 | 61 | 103 | 2.6 | 5.2 | 0.00 | 0.00 | 0.00 | 59 | 1022.8 |
| 20260903102557 | 61 | 113 | 1.7 | 3.5 | 0.00 | 0.00 | 0.00 | 59 | 1022.8 |
| 20260903102047 | 61 | 117 | 1.7 | 3.5 | 0.00 | 0.00 | 0.00 | 59 | 1022.9 |
| 20260903101556 | 61 | 101 | 2.6 | 3.5 | 0.00 | 0.00 | 0.00 | 59 | 1022.9 |
| 20260903101102 | 61 | 88 | 1.7 | 3.5 | 0.00 | 0.00 | 0.00 | 59 | 1022.9 |
| 20260903100505 | 61 | 101 | 2.6 | 3.5 | 0.00 | 0.00 | 0.00 | 59 | 1022.9 |
| 20260903100042 | 61 | 126 | 1.7 | 5.2 | 0.00 | 0.00 | 0.00 | 59 | 1023.0 |
| 20260903095549 | 61 | 92 | 2.6 | 5.2 | 0.00 | 0.00 | 0.00 | 59 | 1023.0 |
| 20260903095058 | 61 | 90 | 1.7 | 3.5 | 0.00 | 0.00 | 0.00 | 59 | 1022.9 |
| 20260903094502 | 61 | 105 | 1.7 | 3.5 | 0.00 | 0.00 | 0.00 | 58 | 1022.8 |
| 20260903094057 | 62 | 109 | 1.7 | 3.5 | 0.00 | 0.00 | 0.00 | 58 | 1022.9 |
| 20260903093606 | 62 | 107 | 1.7 | 3.5 | 0.00 | 0.00 | 0.00 | 58 | 1022.8 |
| 20260903093103 | 62 | 99 | 0.9 | 3.5 | 0.00 | 0.00 | 0.00 | 58 | 1022.9 |
| 20260903092605 | 62 | 95 | 1.7 | 4.3 | 0.00 | 0.00 | 0.00 | 58 | 1022.9 |
| 20260903092058 | 62 | 105 | 2.6 | 4.3 | 0.00 | 0.00 | 0.00 | 58 | 1022.8 |
| 20260903091500 | 62 | 98 | 2.6 | 5.2 | 0.00 | 0.00 | 0.00 | 58 | 1022.8 |
| 20260903091009 | 62 | 123 | 2.6 | 5.2 | 0.00 | 0.00 | 0.00 | 57 | 1022.8 |
| 20260903090606 | 62 | 128 | 2.6 | 3.5 | 0.00 | 0.00 | 0.00 | 57 | 1022.8 |
| 20260903090008 | 62 | 126 | 1.7 | 3.5 | 0.00 | 0.00 | 0.00 | 57 | 1022.7 |
| 20260903085603 | 62 | 117 | 1.7 | 5.2 | 0.00 | 0.00 | 0.00 | 57 | 1022.7 |
| 20260903085006 | 62 | 121 | 1.7 | 5.2 | 0.00 | 0.00 | 0.00 | 56 | 1022.8 |
| 20260903084604 | 63 | 116 | 2.6 | 5.2 | 0.00 | 0.00 | 0.00 | 56 | 1022.7 |
| 20260903084007 | 62 | 114 | 2.6 | 5.2 | 0.00 | 0.00 | 0.00 | 56 | 1022.7 |
| 20260903083604 | 62 | 98 | 2.6 | 5.2 | 0.00 | 0.00 | 0.00 | 57 | 1022.7 |
| 20260903083054 | 62 | 97 | 1.7 | 3.5 | 0.00 | 0.00 | 0.00 | 57 | 1022.7 |
| 20260903082601 | 62 | 61 | 0.0 | 1.7 | 0.00 | 0.00 | 0.00 | 56 | 1022.7 |
| 20260903082054 | 63 | 61 | 0.0 | 1.7 | 0.00 | 0.00 | 0.00 | 56 | 1022.7 |
| 20260903081602 | 63 | 61 | 0.0 | 2.6 | 0.00 | 0.00 | 0.00 | 56 | 1022.8 |
| 20260903081054 | 63 | 73 | 1.7 | 3.5 | 0.00 | 0.00 | 0.00 | 56 | 1022.8 |
| 20260903080545 | 63 | 32 | 1.7 | 3.5 | 0.00 | 0.00 | 0.00 | 55 | 1022.8 |
| 20260903080053 | 63 | 101 | 1.7 | 3.5 | 0.00 | 0.00 | 0.00 | 55 | 1022.7 |
| 20260903075601 | 63 | 123 | 1.7 | 5.2 | 0.00 | 0.00 | 0.00 | 55 | 1022.7 |
| 20260903075003 | 63 | 115 | 2.6 | 5.2 | 0.00 | 0.00 | 0.00 | 55 | 1022.8 |
| 20260903074559 | 63 | 134 | 2.6 | 5.2 | 0.00 | 0.00 | 0.00 | 55 | 1022.8 |
| 20260903074004 | 64 | 123 | 2.6 | 5.2 | 0.00 | 0.00 | 0.00 | 55 | 1022.7 |
| 20260903073601 | 64 | 131 | 3.5 | 5.2 | 0.00 | 0.00 | 0.00 | 54 | 1022.7 |
| 20260903073003 | 64 | 113 | 2.6 | 3.5 | 0.00 | 0.00 | 0.00 | 54 | 1022.7 |
| 20260903072600 | 64 | 119 | 2.6 | 3.5 | 0.00 | 0.00 | 0.00 | 54 | 1022.7 |
| 20260903072052 | 64 | 96 | 1.7 | 3.5 | 0.00 | 0.00 | 0.00 | 54 | 1022.8 |
| 20260903071603 | 64 | 95 | 1.7 | 3.5 | 0.00 | 0.00 | 0.00 | 53 | 1022.8 |
| 20260903071054 | 64 | 75 | 0.9 | 2.6 | 0.00 | 0.00 | 0.00 | 53 | 1022.7 |
| 20260903070541 | 64 | 5 | 0.0 | 2.6 | 0.00 | 0.00 | 0.00 | 53 | 1022.7 |
| 20260903070050 | 64 | 80 | 0.9 | 2.6 | 0.00 | 0.00 | 0.00 | 53 | 1022.6 |
| 20260903065558 | 65 | 36 | 0.9 | 3.5 | 0.00 | 0.00 | 0.00 | 53 | 1022.5 |
| 20260903065000 | 65 | 67 | 0.9 | 3.5 | 0.00 | 0.00 | 0.00 | 52 | 1022.5 |
| 20260903064556 | 65 | 100 | 1.7 | 3.5 | 0.00 | 0.00 | 0.00 | 52 | 1022.5 |
| 20260903064103 | 65 | 96 | 1.7 | 2.6 | 0.00 | 0.00 | 0.00 | 52 | 1022.5 |
| 20260903063557 | 65 | 360 | 0.0 | 2.6 | 0.00 | 0.00 | 0.00 | 52 | 1022.6 |
| 20260903063109 | 65 | 92 | 0.0 | 4.3 | 0.00 | 0.00 | 0.00 | 52 | 1022.6 |
| 20260903062557 | 65 | 84 | 1.7 | 7.0 | 0.00 | 0.00 | 0.00 | 52 | 1022.5 |
| 20260903062047 | 66 | 102 | 3.5 | 7.0 | 0.00 | 0.00 | 0.00 | 52 | 1022.3 |
| 20260903061601 | 65 | 90 | 2.6 | 7.0 | 0.00 | 0.00 | 0.00 | 52 | 1022.3 |
| 20260903061108 | 66 | 155 | 2.6 | 7.0 | 0.00 | 0.00 | 0.00 | 52 | 1022.4 |
| 20260903060505 | 66 | 96 | 2.6 | 6.1 | 0.00 | 0.00 | 0.00 | 51 | 1022.4 |
| 20260903060103 | 66 | 91 | 3.5 | 6.1 | 0.00 | 0.00 | 0.00 | 51 | 1022.3 |
| 20260903055506 | 66 | 88 | 2.6 | 5.2 | 0.00 | 0.00 | 0.00 | 51 | 1022.5 |
| 20260903055103 | 66 | 104 | 2.6 | 3.5 | 0.00 | 0.00 | 0.00 | 51 | 1022.4 |
| 20260903054553 | 66 | 134 | 1.7 | 5.2 | 0.00 | 0.00 | 0.00 | 50 | 1022.3 |
| 20260903054101 | 67 | 109 | 2.6 | 3.5 | 0.00 | 0.00 | 0.00 | 50 | 1022.5 |
| 20260903053555 | 67 | 110 | 1.7 | 3.5 | 0.00 | 0.00 | 0.00 | 49 | 1022.5 |
| 20260903053102 | 67 | 103 | 1.7 | 5.2 | 0.00 | 0.00 | 0.00 | 49 | 1022.5 |
| 20260903052555 | 67 | 114 | 2.6 | 5.2 | 0.00 | 0.00 | 0.00 | 49 | 1022.5 |
| 20260903052102 | 68 | 113 | 2.6 | 4.3 | 0.00 | 0.00 | 0.00 | 48 | 1022.5 |
| 20260903051507 | 68 | 123 | 0.9 | 1.7 | 0.00 | 0.00 | 0.00 | 47 | 1022.5 |
| 20260903051102 | 69 | 123 | 0.0 | 1.7 | 0.00 | 0.00 | 0.00 | 47 | 1022.6 |
| 20260903050502 | 69 | 84 | 0.0 | 0.9 | 0.00 | 0.00 | 0.00 | 46 | 1022.6 |
| 20260903050100 | 69 | 84 | 0.0 | 1.7 | 0.00 | 0.00 | 0.00 | 46 | 1022.5 |
| 20260903045505 | 69 | 84 | 0.9 | 4.3 | 0.00 | 0.00 | 0.00 | 46 | 1022.5 |
| 20260903045103 | 69 | 76 | 1.7 | 4.3 | 0.00 | 0.00 | 0.00 | 46 | 1022.5 |
| 20260903044554 | 69 | 84 | 1.7 | 4.3 | 0.00 | 0.00 | 0.00 | 46 | 1022.4 |
| 20260903044100 | 70 | 72 | 1.7 | 4.3 | 0.00 | 0.00 | 0.00 | 45 | 1022.4 |
| 20260903043554 | 70 | 81 | 1.7 | 4.3 | 0.00 | 0.00 | 0.00 | 45 | 1022.4 |
| 20260903043101 | 70 | 84 | 1.7 | 3.5 | 0.00 | 0.00 | 0.00 | 44 | 1022.4 |
| 20260903042555 | 71 | 113 | 1.7 | 5.2 | 0.00 | 0.00 | 0.00 | 44 | 1022.3 |
| 20260903042043 | 71 | 88 | 2.6 | 6.1 | 0.00 | 0.00 | 0.00 | 44 | 1022.3 |
| 20260903041551 | 71 | 85 | 2.6 | 4.3 | 0.00 | 0.00 | 0.00 | 44 | 1022.3 |
| 20260903041101 | 71 | 90 | 2.6 | 4.3 | 0.00 | 0.00 | 0.00 | 44 | 1022.3 |
| 20260903040502 | 71 | 74 | 1.7 | 4.3 | 0.00 | 0.00 | 0.00 | 44 | 1022.4 |
| 20260903040103 | 71 | 63 | 1.7 | 4.3 | 0.00 | 0.00 | 0.00 | 44 | 1022.4 |
| 20260903035604 | 71 | 63 | 1.7 | 4.3 | 0.00 | 0.00 | 0.00 | 44 | 1022.3 |
| 20260903035056 | 71 | 76 | 1.7 | 3.5 | 0.00 | 0.00 | 0.00 | 44 | 1022.2 |
| 20260903034604 | 72 | 80 | 1.7 | 4.3 | 0.00 | 0.00 | 0.00 | 44 | 1022.1 |
| 20260903034008 | 72 | 60 | 2.6 | 5.2 | 0.00 | 0.00 | 0.00 | 44 | 1022.1 |
| 20260903033602 | 72 | 51 | 2.6 | 5.2 | 0.00 | 0.00 | 0.00 | 44 | 1022.0 |
| 20260903033005 | 71 | 50 | 2.6 | 5.2 | 0.00 | 0.00 | 0.00 | 44 | 1021.9 |
| 20260903032603 | 71 | 49 | 2.6 | 5.2 | 0.00 | 0.00 | 0.00 | 44 | 1021.9 |
| 20260903032006 | 71 | 63 | 2.6 | 5.2 | 0.00 | 0.00 | 0.00 | 44 | 1021.9 |
| 20260903031602 | 71 | 30 | 1.7 | 3.5 | 0.00 | 0.00 | 0.00 | 43 | 1021.9 |
| 20260903031052 | 72 | 11 | 0.9 | 1.7 | 0.00 | 0.00 | 0.00 | 42 | 1021.8 |
| 20260903030600 | 72 | 351 | 0.9 | 1.7 | 0.00 | 0.00 | 0.00 | 42 | 1021.7 |
| 20260903030053 | 72 | 351 | 0.9 | 1.7 | 0.00 | 0.00 | 0.00 | 41 | 1021.7 |
| 20260903025543 | 73 | 351 | 0.9 | 1.7 | 0.00 | 0.00 | 0.00 | 41 | 1021.7 |
| 20260903025050 | 73 | 351 | 0.9 | 1.7 | 0.00 | 0.00 | 0.00 | 41 | 1021.6 |
| 20260903024559 | 73 | 315 | 0.9 | 1.7 | 0.00 | 0.00 | 0.00 | 41 | 1021.7 |
| 20260903024002 | 74 | 315 | 0.9 | 1.7 | 0.00 | 0.00 | 0.00 | 40 | 1021.6 |
| 20260903023556 | 74 | 315 | 0.9 | 1.7 | 0.00 | 0.00 | 0.00 | 40 | 1021.5 |
| 20260903023135 | 74 | 313 | 0.0 | 1.7 | 0.00 | 0.00 | 0.00 | 40 | 1021.6 |
| 20260903022555 | 74 | 311 | 0.0 | 1.7 | 0.00 | 0.00 | 0.00 | 40 | 1021.5 |
| 20260903022045 | 74 | 311 | 0.0 | 1.7 | 0.00 | 0.00 | 0.00 | 40 | 1021.5 |
| 20260903021554 | 75 | 311 | 0.9 | 1.7 | 0.00 | 0.00 | 0.00 | 39 | 1021.6 |
| 20260903021102 | 75 | 311 | 0.9 | 1.7 | 0.00 | 0.00 | 0.00 | 39 | 1021.6 |